Tracking 31027 objects as of 19-Jul-2025
HD Live streaming from Space Station
objects crossing your sky now

FENGYUN 1C DEB

Track FENGYUN 1C DEB now!
10-day predictions


NORAD ID: 39537
Int'l Code: 1999-025EWE
Perigee: 828.6 km
Apogee: 1,089.2 km
Inclination: 99.1 °
Period: 104.1 minutes
Semi major axis: 7329 km
RCS: Unknown
Launch date: May 10, 1999
Source: People's Republic of China (PRC)
Launch site: Taiyaun Space Center, China (TSC)

Note: This is SATELLITE DEBRIS
Your satellite tracking list
CZ-4C DEB
Track 1 satellite(s)




NASA's NSSDC Master Catalog

Two Line Element Set (TLE):
1 39537U 99025EWE 25199.87262075  .00001402  00000-0  11622-2 0  9996
2 39537  99.1444 349.4371 0177735  14.4647 346.1503 13.83432100610292
Source of the keplerian elements: AFSPC